TimeEDT,TemperatureF,Dew PointF,Humidity,Sea Level PressureIn,VisibilityMPH,Wind Direction,Wind SpeedMPH,Gust SpeedMPH,PrecipitationIn,Events,Conditions,WindDirDegrees,DateUTC
12:54 AM,57.9,45.0,62,30.08,10.0,Calm,Calm,-,N/A,,Clear,0,2013-08-06 04:54:00
1:54 AM,55.9,46.0,69,30.07,10.0,Calm,Calm,-,N/A,,Clear,0,2013-08-06 05:54:00
2:54 AM,55.0,46.9,74,30.08,10.0,South,3.5,-,N/A,,Clear,190,2013-08-06 06:54:00
3:54 AM,54.0,46.9,77,30.09,10.0,South,3.5,-,N/A,,Clear,190,2013-08-06 07:54:00
4:54 AM,53.1,46.0,77,30.10,10.0,Calm,Calm,-,N/A,,Clear,0,2013-08-06 08:54:00
5:54 AM,52.0,46.9,83,30.11,10.0,Calm,Calm,-,N/A,,Clear,0,2013-08-06 09:54:00
6:54 AM,55.9,50.0,80,30.13,10.0,Calm,Calm,-,N/A,,Clear,0,2013-08-06 10:54:00
7:54 AM,60.1,50.0,69,30.14,10.0,Calm,Calm,-,N/A,,Clear,0,2013-08-06 11:54:00
8:54 AM,64.9,50.0,58,30.15,10.0,Calm,Calm,-,N/A,,Clear,0,2013-08-06 12:54:00
9:54 AM,69.1,50.0,51,30.15,10.0,Calm,Calm,-,N/A,,Clear,0,2013-08-06 13:54:00
10:54 AM,73.0,48.0,41,30.15,10.0,Calm,Calm,-,N/A,,Clear,0,2013-08-06 14:54:00
11:54 AM,75.0,42.1,31,30.15,10.0,NE,5.8,-,N/A,,Clear,50,2013-08-06 15:54:00
12:54 PM,75.0,44.1,33,30.15,10.0,North,4.6,-,N/A,,Clear,360,2013-08-06 16:54:00
1:54 PM,77.0,46.0,33,30.14,10.0,ESE,5.8,-,N/A,,Clear,110,2013-08-06 17:54:00
2:54 PM,78.1,46.0,32,30.14,10.0,Variable,4.6,-,N/A,,Clear,0,2013-08-06 18:54:00
3:54 PM,77.0,48.0,36,30.14,10.0,ESE,6.9,-,N/A,,Partly Cloudy,110,2013-08-06 19:54:00
4:54 PM,75.9,48.0,37,30.14,10.0,Variable,4.6,-,N/A,,Clear,0,2013-08-06 20:54:00
5:54 PM,75.0,50.0,41,30.14,10.0,ESE,6.9,-,N/A,,Clear,110,2013-08-06 21:54:00
6:54 PM,73.0,48.9,42,30.15,10.0,ESE,3.5,-,N/A,,Clear,120,2013-08-06 22:54:00
7:54 PM,69.1,50.0,51,30.16,10.0,ESE,5.8,-,N/A,,Clear,110,2013-08-06 23:54:00
8:54 PM,66.9,52.0,59,30.17,10.0,SE,3.5,-,N/A,,Clear,130,2013-08-07 00:54:00
9:54 PM,64.9,54.0,68,30.17,10.0,Calm,Calm,-,N/A,,Clear,0,2013-08-07 01:54:00
10:54 PM,63.0,55.0,75,30.16,10.0,Calm,Calm,-,N/A,,Clear,0,2013-08-07 02:54:00
11:54 PM,62.1,55.0,78,30.17,10.0,Calm,Calm,-,N/A,,Clear,0,2013-08-07 03:54:00